Time,TemperatureF,DewpointF,PressureIn,WindDirection,WindDirectionDegrees,WindSpeedMPH,WindSpeedGustMPH,Humidity,HourlyPrecipIn,Conditions,Clouds,dailyrainin,SoftwareType,DateUTC
2013-06-15 00:02:00,62.0,57.0,30.00,NNW,329,0.0,0.0,84,-99.99,,,-99.99,,2013-06-15 04:02:00,
2013-06-15 00:12:00,62.0,57.0,30.00,NNW,328,0.0,0.0,85,-99.99,,,-99.99,,2013-06-15 04:12:00,
2013-06-15 00:22:00,62.0,57.0,30.00,NNW,328,0.0,0.0,85,-99.99,,,-99.99,,2013-06-15 04:22:00,
2013-06-15 00:34:00,62.0,57.0,30.00,NNW,328,0.0,0.0,85,-99.99,,,-99.99,,2013-06-15 04:34:00,
2013-06-15 00:43:00,61.0,57.0,30.01,SE,132,0.0,0.0,86,-99.99,,,-99.99,,2013-06-15 04:43:00,
2013-06-15 00:53:00,61.0,57.0,30.02,SE,132,0.0,0.0,87,-99.99,,,-99.99,,2013-06-15 04:53:00,
2013-06-15 01:02:00,61.0,57.0,30.02,SE,132,0.0,0.0,87,-99.99,,,-99.99,,2013-06-15 05:02:00,
2013-06-15 01:12:00,61.0,57.0,30.02,NE,56,1.0,0.0,86,-99.99,,,-99.99,,2013-06-15 05:12:00,
2013-06-15 01:22:00,61.0,56.0,30.02,East,94,0.0,0.0,85,-99.99,,,-99.99,,2013-06-15 05:22:00,
2013-06-15 01:34:00,61.0,56.0,30.02,ESE,114,0.0,0.0,85,-99.99,,,-99.99,,2013-06-15 05:34:00,
2013-06-15 01:43:00,61.0,56.0,30.03,ESE,115,1.0,0.0,85,-99.99,,,-99.99,,2013-06-15 05:43:00,
2013-06-15 01:52:00,61.0,56.0,30.03,ESE,115,1.0,0.0,85,-99.99,,,-99.99,,2013-06-15 05:52:00,
2013-06-15 02:00:00,60.0,56.0,30.03,ENE,73,1.0,0.0,87,-99.99,,,-99.99,,2013-06-15 06:00:00,
2013-06-15 02:02:00,61.0,56.0,30.03,ENE,74,1.0,0.0,85,-99.99,,,-99.99,,2013-06-15 06:02:00,
2013-06-15 02:12:00,61.0,56.0,30.03,ENE,74,1.0,0.0,85,-99.99,,,-99.99,,2013-06-15 06:12:00,
2013-06-15 02:24:00,60.0,56.0,30.03,ENE,73,1.0,0.0,87,-99.99,,,-99.99,,2013-06-15 06:24:00,
2013-06-15 02:33:00,60.0,56.0,30.03,ENE,73,1.0,0.0,87,-99.99,,,-99.99,,2013-06-15 06:33:00,
2013-06-15 02:43:00,60.0,56.0,30.03,ENE,73,1.0,0.0,87,-99.99,,,-99.99,,2013-06-15 06:43:00,
2013-06-15 02:53:00,60.0,56.0,30.03,ENE,73,1.0,0.0,87,-99.99,,,-99.99,,2013-06-15 06:53:00,
2013-06-15 03:11:00,59.0,56.0,30.03,SSE,153,0.0,0.0,90,-99.99,,,-99.99,,2013-06-15 07:11:00,
2013-06-15 03:23:00,59.0,56.0,30.03,SSE,153,0.0,0.0,90,-99.99,,,-99.99,,2013-06-15 07:23:00,
2013-06-15 03:33:00,58.0,55.0,30.02,ENE,78,0.0,0.0,91,-99.99,,,-99.99,,2013-06-15 07:33:00,
2013-06-15 03:43:00,58.0,55.0,30.02,ENE,78,0.0,0.0,91,-99.99,,,-99.99,,2013-06-15 07:43:00,
2013-06-15 03:53:00,58.0,55.0,30.02,ENE,78,0.0,0.0,91,-99.99,,,-99.99,,2013-06-15 07:53:00,
2013-06-15 04:02:00,58.0,55.0,30.01,ENE,77,1.0,0.0,90,-99.99,,,-99.99,,2013-06-15 08:02:00,
2013-06-15 04:11:00,58.0,55.0,30.01,East,79,2.0,0.0,91,-99.99,,,-99.99,,2013-06-15 08:11:00,
2013-06-15 04:22:00,58.0,55.0,30.01,East,90,3.0,0.0,91,-99.99,,,-99.99,,2013-06-15 08:22:00,
2013-06-15 04:33:00,58.0,55.0,30.01,East,84,0.0,0.0,91,-99.99,,,-99.99,,2013-06-15 08:33:00,
2013-06-15 04:43:00,58.0,55.0,30.01,East,84,0.0,0.0,91,-99.99,,,-99.99,,2013-06-15 08:43:00,
2013-06-15 04:53:00,58.0,55.0,30.01,East,84,0.0,0.0,91,-99.99,,,-99.99,,2013-06-15 08:53:00,
2013-06-15 05:02:00,58.0,55.0,30.02,ESE,111,2.0,0.0,90,-99.99,,,-99.99,,2013-06-15 09:02:00,
2013-06-15 05:12:00,58.0,55.0,30.02,East,99,0.0,0.0,90,-99.99,,,-99.99,,2013-06-15 09:12:00,
2013-06-15 05:22:00,57.0,54.0,30.02,SSE,158,1.0,0.0,91,-99.99,,,-99.99,,2013-06-15 09:22:00,
2013-06-15 05:33:00,57.0,54.0,30.02,SSE,158,1.0,0.0,91,-99.99,,,-99.99,,2013-06-15 09:33:00,
2013-06-15 05:43:00,57.0,54.0,30.02,SSE,158,1.0,0.0,91,-99.99,,,-99.99,,2013-06-15 09:43:00,
2013-06-15 05:52:00,57.0,54.0,30.05,SE,129,0.0,0.0,91,-99.99,,,-99.99,,2013-06-15 09:52:00,
2013-06-15 06:02:00,57.0,54.0,30.05,ESE,103,0.0,0.0,91,-99.99,,,-99.99,,2013-06-15 10:02:00,
2013-06-15 06:12:00,57.0,54.0,30.05,ESE,103,0.0,0.0,91,-99.99,,,-99.99,,2013-06-15 10:12:00,
2013-06-15 06:23:00,57.0,54.0,30.05,ESE,103,0.0,0.0,91,-99.99,,,-99.99,,2013-06-15 10:23:00,
2013-06-15 06:34:00,57.0,55.0,30.06,East,99,2.0,0.0,92,-99.99,,,-99.99,,2013-06-15 10:34:00,
2013-06-15 06:44:00,57.0,55.0,30.07,ENE,72,0.0,0.0,92,-99.99,,,-99.99,,2013-06-15 10:44:00,
2013-06-15 06:53:00,57.0,55.0,30.07,East,86,1.0,0.0,92,-99.99,,,-99.99,,2013-06-15 10:53:00,
2013-06-15 07:02:00,57.0,55.0,30.07,East,83,0.0,0.0,92,-99.99,,,-99.99,,2013-06-15 11:02:00,
2013-06-15 07:12:00,57.0,55.0,30.07,East,83,0.0,0.0,92,-99.99,,,-99.99,,2013-06-15 11:12:00,
2013-06-15 07:22:00,57.0,55.0,30.07,East,83,0.0,0.0,92,-99.99,,,-99.99,,2013-06-15 11:22:00,
2013-06-15 07:33:00,57.0,54.0,30.07,SSE,153,2.0,0.0,91,-99.99,,,-99.99,,2013-06-15 11:33:00,
2013-06-15 07:43:00,57.0,54.0,30.07,SSE,153,2.0,0.0,91,-99.99,,,-99.99,,2013-06-15 11:43:00,
2013-06-15 07:53:00,58.0,55.0,30.08,ESE,110,1.0,0.0,90,-99.99,,,-99.99,,2013-06-15 11:53:00,
2013-06-15 08:02:00,59.0,56.0,30.08,ESE,104,2.0,0.0,89,-99.99,,,-99.99,,2013-06-15 12:02:00,
2013-06-15 08:12:00,60.0,56.0,30.07,East,84,1.0,0.0,88,-99.99,,,-99.99,,2013-06-15 12:12:00,
2013-06-15 08:22:00,60.0,56.0,30.08,SSE,152,2.0,0.0,87,-99.99,,,-99.99,,2013-06-15 12:22:00,
2013-06-15 08:33:00,61.0,57.0,30.08,East,92,1.0,0.0,86,-99.99,,,-99.99,,2013-06-15 12:33:00,
2013-06-15 08:43:00,61.0,57.0,30.08,East,92,1.0,0.0,86,-99.99,,,-99.99,,2013-06-15 12:43:00,
2013-06-15 08:52:00,61.0,57.0,30.08,East,92,1.0,0.0,86,-99.99,,,-99.99,,2013-06-15 12:52:00,
2013-06-15 09:02:00,61.0,57.0,30.08,East,92,1.0,0.0,86,-99.99,,,-99.99,,2013-06-15 13:02:00,
2013-06-15 09:10:00,66.0,60.0,30.10,East,82,1.0,0.0,81,-99.99,,,-99.99,,2013-06-15 13:10:00,
2013-06-15 09:11:00,64.0,59.0,30.09,ESE,110,2.0,0.0,83,-99.99,,,-99.99,,2013-06-15 13:11:00,
2013-06-15 09:22:00,65.0,59.0,30.09,East,93,0.0,0.0,81,-99.99,,,-99.99,,2013-06-15 13:22:00,
2013-06-15 09:32:00,66.0,60.0,30.10,East,82,1.0,0.0,81,-99.99,,,-99.99,,2013-06-15 13:32:00,
2013-06-15 09:43:00,66.0,60.0,30.10,East,82,1.0,0.0,81,-99.99,,,-99.99,,2013-06-15 13:43:00,
2013-06-15 09:53:00,66.0,60.0,30.10,East,82,1.0,0.0,81,-99.99,,,-99.99,,2013-06-15 13:53:00,
2013-06-15 10:01:00,66.0,60.0,30.10,East,82,1.0,0.0,81,-99.99,,,-99.99,,2013-06-15 14:01:00,
2013-06-15 10:23:00,70.0,61.0,30.09,SE,141,2.0,0.0,72,-99.99,,,-99.99,,2013-06-15 14:23:00,
2013-06-15 10:34:00,70.0,59.0,30.09,ESE,121,3.0,0.0,68,-99.99,,,-99.99,,2013-06-15 14:34:00,
2013-06-15 10:43:00,71.0,60.0,30.09,ESE,115,2.0,0.0,68,-99.99,,,-99.99,,2013-06-15 14:43:00,
2013-06-15 10:54:00,72.0,61.0,30.08,NNW,336,2.0,0.0,68,-99.99,,,-99.99,,2013-06-15 14:54:00,
2013-06-15 11:02:00,72.0,60.0,30.08,ENE,76,4.0,0.0,66,-99.99,,,-99.99,,2013-06-15 15:02:00,
2013-06-15 11:11:00,73.0,61.0,30.08,SE,134,2.0,0.0,66,-99.99,,,-99.99,,2013-06-15 15:11:00,
2013-06-15 11:22:00,73.0,60.0,30.08,NE,36,2.0,0.0,64,-99.99,,,-99.99,,2013-06-15 15:22:00,
2013-06-15 11:33:00,73.0,60.0,30.08,NE,36,2.0,0.0,64,-99.99,,,-99.99,,2013-06-15 15:33:00,
2013-06-15 11:43:00,74.0,61.0,30.07,WNW,291,2.0,0.0,64,-99.99,,,-99.99,,2013-06-15 15:43:00,
2013-06-15 11:53:00,74.0,61.0,30.07,WNW,291,2.0,0.0,64,-99.99,,,-99.99,,2013-06-15 15:53:00,
2013-06-15 12:01:00,74.0,61.0,30.07,WNW,291,2.0,0.0,64,-99.99,,,-99.99,,2013-06-15 16:01:00,
2013-06-15 12:22:00,76.0,60.0,30.07,East,81,0.0,0.0,57,-99.99,,,-99.99,,2013-06-15 16:22:00,
2013-06-15 12:33:00,76.0,60.0,30.07,SSW,197,1.0,0.0,57,-99.99,,,-99.99,,2013-06-15 16:33:00,
2013-06-15 12:43:00,76.0,60.0,30.07,SSW,197,1.0,0.0,57,-99.99,,,-99.99,,2013-06-15 16:43:00,
2013-06-15 12:53:00,76.0,60.0,30.07,SSW,197,1.0,0.0,57,-99.99,,,-99.99,,2013-06-15 16:53:00,
2013-06-15 13:02:00,76.0,60.0,30.07,SSW,197,1.0,0.0,57,-99.99,,,-99.99,,2013-06-15 17:02:00,
2013-06-15 13:22:00,79.0,58.0,30.05,SE,129,1.0,0.0,48,-99.99,,,-99.99,,2013-06-15 17:22:00,
2013-06-15 13:32:00,79.0,58.0,30.05,SE,129,1.0,0.0,48,-99.99,,,-99.99,,2013-06-15 17:32:00,
2013-06-15 13:52:00,80.0,56.0,30.05,SSE,163,1.0,0.0,44,-99.99,,,-99.99,,2013-06-15 17:52:00,
2013-06-15 14:53:00,81.0,55.0,30.03,ESE,119,3.0,0.0,41,-99.99,,,-99.99,,2013-06-15 18:53:00,
2013-06-15 17:02:00,82.0,58.0,30.01,East,85,0.0,0.0,44,-99.99,,,-99.99,,2013-06-15 21:02:00,
2013-06-15 17:12:00,82.0,58.0,30.01,East,85,0.0,0.0,44,-99.99,,,-99.99,,2013-06-15 21:12:00,
2013-06-15 17:22:00,82.0,58.0,30.01,East,85,0.0,0.0,44,-99.99,,,-99.99,,2013-06-15 21:22:00,
2013-06-15 20:02:00,81.0,59.0,30.00,ESE,119,0.0,0.0,47,-99.99,,,-99.99,,2013-06-16 00:02:00,
2013-06-15 20:22:00,78.0,59.0,30.00,ESE,119,0.0,0.0,53,-99.99,,,-99.99,,2013-06-16 00:22:00,
2013-06-15 20:34:00,77.0,62.0,30.00,ESE,119,0.0,0.0,59,-99.99,,,-99.99,,2013-06-16 00:34:00,
2013-06-15 20:43:00,75.0,62.0,30.00,ESE,119,0.0,0.0,64,-99.99,,,-99.99,,2013-06-16 00:43:00,
2013-06-15 20:52:00,75.0,62.0,30.00,ESE,119,0.0,0.0,64,-99.99,,,-99.99,,2013-06-16 00:52:00,
2013-06-15 21:01:00,75.0,62.0,30.00,ESE,119,0.0,0.0,64,-99.99,,,-99.99,,2013-06-16 01:01:00,
2013-06-15 21:12:00,72.0,62.0,30.00,ESE,118,0.0,0.0,70,-99.99,,,-99.99,,2013-06-16 01:12:00,
2013-06-15 21:22:00,71.0,61.0,30.00,ESE,119,0.0,0.0,71,-99.99,,,-99.99,,2013-06-16 01:22:00,
2013-06-15 21:33:00,70.0,61.0,30.00,ESE,119,0.0,0.0,74,-99.99,,,-99.99,,2013-06-16 01:33:00,
2013-06-15 21:42:00,69.0,61.0,30.01,ESE,118,0.0,0.0,75,-99.99,,,-99.99,,2013-06-16 01:42:00,
2013-06-15 21:53:00,69.0,61.0,30.01,ESE,118,0.0,0.0,75,-99.99,,,-99.99,,2013-06-16 01:53:00,
2013-06-15 22:02:00,68.0,60.0,30.00,ESE,119,0.0,0.0,76,-99.99,,,-99.99,,2013-06-16 02:02:00,
2013-06-15 22:12:00,68.0,61.0,30.00,ESE,119,0.0,0.0,78,-99.99,,,-99.99,,2013-06-16 02:12:00,
2013-06-15 22:22:00,67.0,60.0,30.00,ESE,119,0.0,0.0,78,-99.99,,,-99.99,,2013-06-16 02:22:00,
2013-06-15 22:33:00,67.0,60.0,30.00,ESE,119,0.0,0.0,78,-99.99,,,-99.99,,2013-06-16 02:33:00,
2013-06-15 22:43:00,66.0,60.0,30.01,ESE,118,0.0,0.0,81,-99.99,,,-99.99,,2013-06-16 02:43:00,
2013-06-15 22:53:00,66.0,60.0,30.01,ESE,119,0.0,0.0,82,-99.99,,,-99.99,,2013-06-16 02:53:00,
2013-06-15 23:02:00,66.0,60.0,30.01,ESE,119,0.0,0.0,82,-99.99,,,-99.99,,2013-06-16 03:02:00,
2013-06-15 23:12:00,65.0,59.0,30.02,ESE,119,0.0,0.0,81,-99.99,,,-99.99,,2013-06-16 03:12:00,
2013-06-15 23:22:00,65.0,59.0,30.02,ESE,119,0.0,0.0,82,-99.99,,,-99.99,,2013-06-16 03:22:00,
2013-06-15 23:33:00,65.0,59.0,30.02,ESE,119,0.0,0.0,82,-99.99,,,-99.99,,2013-06-16 03:33:00,
2013-06-15 23:43:00,64.0,59.0,30.02,ESE,119,0.0,0.0,83,-99.99,,,-99.99,,2013-06-16 03:43:00,
2013-06-15 23:53:00,64.0,59.0,30.02,ESE,119,0.0,0.0,83,-99.99,,,-99.99,,2013-06-16 03:53:00,